"Pseudo-MPEC" for RdSH244

Created 2023 Nov 24 16:22:14 UT using Find_Orb

Click here for an explanation of pseudo-MPECs

 
 Astrometry: 
     RdSH244*KB2023 11 19xH]wcAstrometry3redacted;n,click:R1TrQQZAZ)I.d]2TMuIY89
     RdSH244 KB2023 11 19msL*J5=AWJ-ev^WhereZQ`PS0^qmJKtforEOA!KBjB`2Sds;1ZrkY89
     RdSH244 KB2023 11 19e2uvZiC^oq*D8y=Ei__U8J(Ve:k7_V#[OTexplanationorwSgo]Y89

Station data:
(Y89) Proxima Centauri Observatory, Valdin  (N42.222443 W6.988110)  Spain.

Orbital elements:  RdSH244
   Perihelion 2023 Sep 20.89937 +/- 55.3 TT = 21:35:05 (JD 2460208.39937)
Epoch 2023 Nov 19.0 TT = JDT 2460267.5   Earth MOID: 0.0799   Me: 0.0190
M  37.55266963 +/- 42               (J2000 ecliptic)             AutoNEOCP
n   0.63540213 +/- 0.418            Peri.   47.12961 +/- 110
a   1.33999630 +/- 0.588            Node   238.12646 +/- 57
e   0.7255041 +/- 0.277             Incl.   21.77756 +/- 18
P   1.55/566.56d           H 23.91  G  0.15   U 12.2  SR
q 0.36782347 +/- 0.347    Q 2.31216914 +/- 23.1
From 3 observations 2023 Nov. 19 (43.0 min); mean residual 0".70
Residuals in arcseconds: 
231119 Y89  .49+  .50+    231119 Y89  .98-  1.0-    231119 Y89  .49+  .50+    

Ephemerides (geocentric):
Date (UTC) HH   RA             Dec           delta  r     elong  mag " sig PA
---- --------  ------------   ------------  ------ ------ -----  --- --------
2023 11 24 16  02 02 35.174   +16 09 16.97  .24637 1.2106 152.1 22.4  35d  76
2023 11 24 17  02 02 36.775   +16 06 21.38  .24699 1.2111 152.1 22.4  35d  76
2023 11 24 18  02 02 38.373   +16 03 26.69  .24762 1.2116 152.0 22.4  35d  76
2023 11 24 19  02 02 39.969   +16 00 32.91  .24824 1.2121 152.0 22.4  35d  75
2023 11 24 20  02 02 41.563   +15 57 40.02  .24887 1.2126 152.0 22.4  35d  75
2023 11 24 21  02 02 43.154   +15 54 48.02  .24949 1.2131 151.9 22.4  36d  75
2023 11 24 22  02 02 44.742   +15 51 56.91  .25012 1.2136 151.9 22.4  36d  75
2023 11 24 23  02 02 46.328   +15 49 06.67  .25075 1.2140 151.8 22.4  36d  75
2023 11 25 00  02 02 47.912   +15 46 17.31  .25137 1.2145 151.8 22.4  36d  75
2023 11 25 01  02 02 49.494   +15 43 28.81  .25200 1.2150 151.7 22.4  37d  75
2023 11 25 02  02 02 51.074   +15 40 41.17  .25263 1.2155 151.7 22.4  37d  75
2023 11 25 03  02 02 52.651   +15 37 54.39  .25326 1.2160 151.6 22.4  37d  75
2023 11 25 04  02 02 54.226   +15 35 08.45  .25389 1.2165 151.6 22.4  37d  75
2023 11 25 05  02 02 55.799   +15 32 23.36  .25451 1.2170 151.5 22.5  37d  75
2023 11 25 06  02 02 57.370   +15 29 39.10  .25514 1.2175 151.5 22.5  37d  75
2023 11 25 07  02 02 58.939   +15 26 55.68  .25577 1.2180 151.4 22.5  37d  75
2023 11 25 08  02 03 00.505   +15 24 13.08  .25640 1.2185 151.4 22.5  38d  75
2023 11 25 09  02 03 02.070   +15 21 31.30  .25703 1.2190 151.3 22.5  38d  75
2023 11 25 10  02 03 03.633   +15 18 50.34  .25766 1.2194 151.3 22.5  38d  75
2023 11 25 11  02 03 05.193   +15 16 10.19  .25829 1.2199 151.2 22.5  38d  75
2023 11 25 12  02 03 06.752   +15 13 30.84  .25892 1.2204 151.2 22.5  38d  75
2023 11 25 13  02 03 08.309   +15 10 52.29  .25955 1.2209 151.1 22.5  38d  75
2023 11 25 14  02 03 09.864   +15 08 14.54  .26019 1.2214 151.1 22.5  38d  75
2023 11 25 15  02 03 11.417   +15 05 37.57  .26082 1.2219 151.1 22.5  38d  75
2023 11 25 16  02 03 12.968   +15 03 01.39  .26145 1.2224 151.0 22.5  38d  75
2023 11 25 17  02 03 14.518   +15 00 25.99  .26208 1.2229 151.0 22.5  38d  75
2023 11 25 18  02 03 16.066   +14 57 51.36  .26271 1.2234 150.9 22.5  38d  75
2023 11 25 19  02 03 17.612   +14 55 17.50  .26335 1.2238 150.9 22.6  38d  75
2023 11 25 20  02 03 19.156   +14 52 44.40  .26398 1.2243 150.8 22.6  38d  75
2023 11 25 21  02 03 20.698   +14 50 12.06  .26461 1.2248 150.8 22.6  38d  75
2023 11 25 22  02 03 22.239   +14 47 40.47  .26525 1.2253 150.7 22.6  38d  75
2023 11 25 23  02 03 23.778   +14 45 09.63  .26588 1.2258 150.7 22.6  38d  75
2023 11 26 00  02 03 25.316   +14 42 39.54  .26652 1.2263 150.6 22.6  38d  75
2023 11 26 01  02 03 26.852   +14 40 10.19  .26715 1.2268 150.6 22.6  38d  75
2023 11 26 02  02 03 28.386   +14 37 41.57  .26779 1.2273 150.5 22.6  38d  75
2023 11 26 03  02 03 29.919   +14 35 13.67  .26842 1.2277 150.5 22.6  38d  75
2023 11 26 04  02 03 31.451   +14 32 46.51  .26906 1.2282 150.4 22.6  38d  75
2023 11 26 05  02 03 32.980   +14 30 20.06  .26969 1.2287 150.4 22.6  38d  75
2023 11 26 06  02 03 34.509   +14 27 54.33  .27033 1.2292 150.3 22.6  39d  75
2023 11 26 07  02 03 36.036   +14 25 29.31  .27096 1.2297 150.3 22.6  39d  75
2023 11 26 08  02 03 37.561   +14 23 05.00  .27160 1.2302 150.2 22.6  39d  75
2023 11 26 09  02 03 39.085   +14 20 41.39  .27224 1.2307 150.2 22.6  39d  75
2023 11 26 10  02 03 40.608   +14 18 18.48  .27288 1.2312 150.1 22.7  39d  75
2023 11 26 11  02 03 42.129   +14 15 56.26  .27351 1.2316 150.1 22.7  39d  75
2023 11 26 12  02 03 43.649   +14 13 34.73  .27415 1.2321 150.1 22.7  39d  75
2023 11 26 13  02 03 45.168   +14 11 13.88  .27479 1.2326 150.0 22.7  39d  75
2023 11 26 14  02 03 46.685   +14 08 53.72  .27543 1.2331 150.0 22.7  39d  75
2023 11 26 15  02 03 48.201   +14 06 34.23  .27607 1.2336 149.9 22.7  39d  75